SL-8 DEB, 22840

Orbit data source: Space-Track

SL-8 DEB, 22840 is space debris in LEO originally from a launch on Tue, 12 Feb 1991 UTC launched from the Plesetsk Missile And Space Complex (PKMTR). Debris objects in space refer to the collection of defunct objects orbiting the Earth. Examples of debris include non-operational satellites, rocket bodies, and fragments generated from explosions, collisions, or faulty payload assembly.

Loading next visibility...
Identifier
22840, 1991-009CK
Orbit
LEO
Country
Flag of CISCIS
Related business
Manufacturer
Unknown
Mission
Spacecraft
Bus & Motor
Unknown
Mass
Unknown
Launch date (UTC)
1991-02-12 (35 years ago)
Launch vehicle
Unknown
Launch site
Plesetsk Missile And Space Complex (PKMTR)
Object type
Payload
Rocket body
Debris
Shape & HBR
Unknown shape, 0.1 m
Radar Cross Section
Medium (>0.1 m² and <1 m²)

Expand to show TLE details & history
Last TLE update: 4 days ago

TLE from 4 days ago
0 SL-8 DEB
1 22840U 91009CK  26169.35456897  .00000289  00000-0  21649-2 0  9999
2 22840  73.9544 303.2548 0172700 132.7324 256.5267 12.39961605529803
Epoch: 2026-06-18T08:30Z
TLE epoch observation values (Epoch: 2026-06-18T08:30:34.759Z)
Latitude
26.23292°
Longitude
-82.8813°
Altitude
1,543.395 km
Speed
7.082 km/s
True Right ascension
20h 45m 27s
True Declination
26° 06' 37"
Sunlit
Object was in daylight at epoch
Visualization orbit readout
Latitude
Unknown
Longitude
Unknown
Altitude
Unknown
Speed
Unknown
Apparent Right ascension
Unknown
Apparent Declination
Unknown
Sunlit
N/A
Visualization observer readout
Local Sidereal Time
04:00:00
Azimuth
Unknown
Elevation
Unknown
Doppler factor
Unknown
Orbital elements
Apogee altitude
1,640.753 km
Perigee altitude
1,368.482 km
Semi-major axis
7,882.755 km
Eccentricity
0.01727
Inclination
73.9544°
RAAN
303.2548°
Arg. of periapsis
132.7324°
True anomaly
254.61216°
Mean anomaly
256.5267°
Eccentric anomaly
255.56842°
Mean motion
3.10117 °/min
Orbital period
116.09 mins
BSTAR
0.0021649
Loading maneuver chart data...
Computing Atmospheric mass density...
Loading historical data...
Loading historical data...
Loading historical data...
Loading historical data...
Loading historical data...
Loading historical data...
Loading historical data...

Documentation

Showing up to 5 results
|